Regional Weather Roundup
Issued by NWS

Home | Current Version | Previous Version | Graphics & Text | Print | Product List | Glossary On
Versions: 1 2 3 4 5 6 7 8 9 10 11 12 13 14 15 16 17 18 19 20 21 22 23 24 25 26 27 28 29 30 31 32 33 34 35 36 37 38 39 40 41 42 43 44 45 46 47 48 49 50
605
ASUS45 KPSR 251110
RWRAZ

ARIZONA HOURLY REGIONAL WEATHER ROUNDUP
NATIONAL WEATHER SERVICE PHOENIX AZ
400 AM MST WED APR 25 2018

NOTE: FAIR INDICATES FEW OR NO CLOUDS BELOW 12,000 FEET WITH NO
SIGNIFICANT WEATHER AND/OR OBSTRUCTIONS TO VISIBILITY.

AZZ001>003-036-251200-
NORTHWEST ARIZONA

CITY           SKY/WX    TMP DP  RH WIND       PRES   REMARKS
BULLHEAD CITY  CLEAR     75  28  17 CALM      29.89R
KINGMAN        CLEAR     56  19  23 S3        30.04S
$$

AZZ004>008-015-016-018-251200-
NORTH CENTRAL ARIZONA

CITY           SKY/WX    TMP DP  RH WIND       PRES   REMARKS
GRAND CANYON   CLEAR     53  18  25 E12       30.24S
WILLIAMS       CLEAR     41  18  38 S3        30.21S
PRESCOTT       CLEAR     51  23  33 S8        30.14R
FLAGSTAFF      CLEAR     51  19  28 NE14      30.25S
PAYSON         CLEAR     55  16  21 CALM      30.13S
PAGE           CLEAR     60  18  19 N5        30.19R
$$

AZZ009>014-017-251200-
NORTHEAST ARIZONA

CITY           SKY/WX    TMP DP  RH WIND       PRES   REMARKS
WINSLOW        CLEAR     54  18  24 NW13      30.16R
SAINT JOHNS    PTCLDY    51  18  27 S3        30.15R
WINDOW ROCK    PTCLDY    37  13  37 S5        30.24R WCI  33
SHOW LOW       CLEAR     50  16  25 VRB6G13   30.22R
$$

AZZ540-542>544-546-548-251200-
GREATER PHOENIX AREA

CITY           SKY/WX    TMP DP  RH WIND       PRES   REMARKS
PHOENIX        PTCLDY    72  34  24 E6        29.89S
BUCKEYE        CLEAR     66  23  19 N8        29.91S
LUKE AFB       CLEAR     68  32  26 NW3       29.89R
DEER VALLEY    CLEAR     69  25  19 SE6       29.91R
SCOTTSDALE     PTCLDY    71  31  22 CALM      29.93R
MESA-GATEWAY   CLEAR     66  25  21 E9        29.93S
$$

AZZ539-553-251200-
SOUTHWEST MARICOPA COUNTY AND PINAL COUNTY

CITY           SKY/WX    TMP DP  RH WIND       PRES   REMARKS
CASA GRANDE    PTCLDY    64  24  21 NE5       29.94R
GILA BEND      FAIR      72  22  15 S3        29.89R
$$

AZZ503-504-507>509-251200-
SOUTHEAST ARIZONA

CITY           SKY/WX    TMP DP  RH WIND       PRES   REMARKS
TUCSON         PTCLDY    67  21  17 SE6       30.02S
DAVIS-MONTHAN  CLEAR     63  22  21 SE8       30.00S
NOGALES        PTCLDY    63  20  19 E6        30.06F
SIERRA VISTA   PTCLDY    65  17  16 CALM      30.12S
DOUGLAS        MOCLDY    64  16  15 N14       30.07F
SAFFORD        CLEAR     58  14  17 E6        30.00R
$$

AZZ532-251200-
SOUTHWEST ARIZONA

CITY           SKY/WX    TMP DP  RH WIND       PRES   REMARKS
YUMA           CLEAR     69  35  28 S3        29.87S
$$

CAZ041-043-047-048-061-525>527-560>570-251200-
SOUTHERN CALIFORNIA

CITY           SKY/WX    TMP DP  RH WIND       PRES   REMARKS
DOWNTOWN L.A.  CLOUDY    56  52  86 CALM      30.05S FOG
L.A. AIRPORT   CLOUDY    56  51  84 SE5       30.06S
SAN DIEGO      MOCLDY    59  51  75 N3        30.06F
BURBANK        CLOUDY    54  53  97 SE7       30.04  FOG
ONTARIO        PTCLDY    53  48  83 SW6       30.05R
RIVERSIDE      CLEAR     52  50  93 W5        30.06R
PALM SPRINGS   CLEAR     70  37  29 S3        29.89S
EL CENTRO NAS  CLEAR     73  23  15 W13       29.87S
IMPERIAL       CLEAR     69  32  25 W7        29.85S
BLYTHE         CLEAR     69  32  25 N7        29.87R
NEEDLES        CLEAR     75  23  14 NW9       29.89R
$$

NVZ020-UTZ003-251200-
SOUTHERN NEVADA-UTAH

CITY           SKY/WX    TMP DP  RH WIND       PRES   REMARKS
LAS VEGAS      PTCLDY    73  25  16 NE12      29.99R
SALT LAKE CITY CLEAR     49  28  44 S13       30.24S
$$

NMZ009-TXZ055-251200-
NEW MEXICO-WEST TEXAS

CITY           SKY/WX    TMP DP  RH WIND       PRES   REMARKS
ALBUQUERQUE    PTCLDY    48  34  58 E28G33    30.23R
EL PASO        MOCLDY    58  38  47 E8        30.11R
$$


........................KEY........................
SKY/WX - SKY CONDITION/WEATHER
TMP    - TEMPERATURE IN FAHRENHEIT
DP     - DEW POINT IN FAHRENHEIT
RH     - RELATIVE HUMIDITY IN PERCENT
WIND   - DIRECTION AND SPEED IN MILES PER HOUR (MPH)
VRB    - VARIABLE WIND DIRECTION
PRES   - MEAN SEA LEVEL PRESSURE IN INCHES OF MERCURY
         F - FALLING PRESSURE   R - RISING PRESSURE
         S - STEADY PRESSURE
VSB    - VISIBILITY IN MILES
HX     - HEAT INDEX IN FAHRENHEIT
WCI    - WIND CHILL INDEX IN FAHRENHEIT
TC     - TEMPERATURE IN CELSIUS WHICH IS ALSO KNOWN AS
         TEMPERATURE IN CENTIGRADE
AFB    - AIR FORCE BASE
         LUKE AFB IS LUKE AIR FORCE BASE
         DAVIS-MONTHAN IS DAVIS-MONTHAN AIR FORCE BASE
NAS    - NAVAL AIR STATION
         EL CENTRO NAS IS EL CENTRO NAVAL AIR STATION
N/A    - NOT AVAILABLE





USA.gov is the U.S. government's official web portal to all federal, state and local government web resources and services.